Weather History for Bloomington, IN

Change the Weather History Date:

Wednesday, August 14, 2013

  Actual Average Record
Temperature  
Mean Temperature 62 °F 73 °F  
Max Temperature 73 °F 85 °F 89 °F (2007)
Min Temperature 50 °F 62 °F 46 °F (2004)
Degree Days  
Heating Degree Days 3 0  
Month to date heating degree days 3 0  
Since 1 June heating degree days 14 17  
Since 1 July heating degree days 7 2  
Cooling Degree Days 0 9  
Month to date cooling degree days 95 126  
Year to date cooling degree days 683 692  
Since 1 June cooling degree days 564 610  
Growing Degree Days 12 (Base 50)    
Moisture  
Dew Point 48 °F    
Average Humidity 67    
Maximum Humidity 93    
Minimum Humidity 41    
Precipitation  
Precipitation 0.00 in 0.08 in 0.17 in (2006)
Month to date precipitation 0.25 1.47  
Year to date precipitation 29.09 31.14  
Sea Level Pressure  
Sea Level Pressure 30.14 in    
Wind  
Wind Speed 6 mph (NNE)    
Max Wind Speed 14 mph    
Max Gust Speed 20 mph    
Visibility 10 miles    
Events      
T = Trace of Precipitation, MM = Missing Value Source: NWS Daily Summary

Daily Weather History Graph

Daily Weather History Graph

Search for Another Location

Airport:

Trip Planner

Search our weather history database for the weather conditions in past years. The results will help you decide how hot, cold, wet, or windy it might be!

Date:

Astronomy

Aug. 14, 2013 Rise Set
Actual Time 6:58 AM EDT 8:42 PM EDT
Civil Twilight 6:30 AM EDT 9:11 PM EDT
Nautical Twilight 5:55 AM EDT 9:45 PM EDT
Astronomical Twilight 5:18 AM EDT 10:22 PM EDT
Moon 2:53 PM EDT (8/14) 12:22 AM EDT (8/14)
Length of Visible Light 14h 40m
Length of Day
13h 43m
First Quarter, 52% of the Moon is Illuminated
Aug 14
First Quarter
Aug 20
Full
Aug 28
Last Quarter
Sep 5
New
Sep 12
First Quarter

Hourly Weather History & Observations

Time (EDT) Temp. Dew Point Humidity Pressure Visibility Wind Dir Wind Speed Gust Speed Precip Events Conditions
12:53 AM 54.0 °F 48.9 °F 83% 30.10 in 10.0 mi North 6.9 mph - N/A   Clear
1:53 AM 52.0 °F 48.9 °F 89% 30.10 in 10.0 mi North 6.9 mph - N/A   Clear
2:53 AM 53.1 °F 48.9 °F 86% 30.10 in 10.0 mi North 4.6 mph - N/A   Clear
3:53 AM 52.0 °F 48.9 °F 89% 30.11 in 10.0 mi North 6.9 mph - N/A   Clear
4:53 AM 52.0 °F 48.0 °F 86% 30.12 in 10.0 mi North 6.9 mph - N/A   Clear
5:53 AM 51.1 °F 48.0 °F 89% 30.13 in 10.0 mi North 6.9 mph - N/A   Clear
6:53 AM 51.1 °F 48.0 °F 89% 30.14 in 10.0 mi North 3.5 mph - N/A   Clear
7:53 AM 52.0 °F 48.9 °F 89% 30.16 in 10.0 mi North 5.8 mph - N/A   Clear
8:53 AM 57.0 °F 50.0 °F 77% 30.18 in 10.0 mi North 8.1 mph - N/A   Clear
9:53 AM 61.0 °F 48.9 °F 64% 30.18 in 10.0 mi NNE 5.8 mph - N/A   Clear
10:53 AM 64.0 °F 48.0 °F 56% 30.18 in 10.0 mi North 11.5 mph - N/A   Clear
11:53 AM 66.9 °F 48.0 °F 51% 30.18 in 10.0 mi North 10.4 mph - N/A   Clear
12:53 PM 68.0 °F 46.9 °F 47% 30.18 in 10.0 mi NE 9.2 mph 17.3 mph N/A   Clear
1:53 PM 70.0 °F 46.9 °F 44% 30.17 in 10.0 mi NNE 10.4 mph - N/A   Clear
2:53 PM 71.1 °F 46.0 °F 41% 30.16 in 10.0 mi NNE 8.1 mph - N/A   Clear
3:53 PM 72.0 °F 46.0 °F 40% 30.15 in 10.0 mi NNE 12.7 mph 19.6 mph N/A   Clear
4:53 PM 72.0 °F 46.0 °F 40% 30.14 in 10.0 mi NNE 11.5 mph - N/A   Clear
5:53 PM 72.0 °F 46.0 °F 40% 30.14 in 10.0 mi NNE 6.9 mph - N/A   Partly Cloudy
6:53 PM 70.0 °F 46.0 °F 42% 30.13 in 10.0 mi North 5.8 mph - N/A   Clear
7:53 PM 66.9 °F 46.9 °F 49% 30.13 in 10.0 mi NNE 3.5 mph - N/A   Clear
8:53 PM 64.0 °F 48.0 °F 56% 30.13 in 10.0 mi NE 3.5 mph - N/A   Clear
9:53 PM 55.9 °F 53.1 °F 90% 30.15 in 10.0 mi Calm Calm - N/A   Clear
10:53 PM 54.0 °F 51.1 °F 90% 30.16 in 10.0 mi North 3.5 mph - N/A   Clear
11:53 PM 55.0 °F 50.0 °F 83% 30.16 in 10.0 mi Calm Calm - N/A   Clear